This is the latest recevied weather packets stored in our database for station/object NC4M. If no packets are shown the sender has not sent any weather packets the latest 10 day(s).
| Time | Temp. | Humidity | Pressure | Rain* | Wind** | Luminosity | Snow |
|---|---|---|---|---|---|---|---|
| 1787806057 | 22.22° C | 85% | 1017 hPa | 0 mm | - | 0 W/m² | - |
| 1787805753 | 22.22° C | 85% | 1017 hPa | 0 mm | - | 0 W/m² | - |
| 1787805448 | 22.78° C | 85% | 1016.9 hPa | 0 mm | - | 0 W/m² | - |
| 1787805144 | 22.78° C | 82% | 1016.9 hPa | 0 mm | - | 0 W/m² | - |
| 1787804843 | 23.33° C | 83% | 1017 hPa | 0 mm | - | 0 W/m² | - |
| 1787804538 | 23.33° C | 81% | 1017 hPa | 0 mm | - | 0 W/m² | - |
| 1787804237 | 23.33° C | 81% | 1016.9 hPa | 0 mm | - | 0 W/m² | - |
| 1787803933 | 23.33° C | 81% | 1016.8 hPa | 0 mm | - | 0 W/m² | - |
| 1787803632 | 23.89° C | 80% | 1016.8 hPa | 0 mm | - | 0 W/m² | - |
| 1787803332 | 23.89° C | 79% | 1016.7 hPa | 0 mm | - | 0 W/m² | - |
| 1787803027 | 24.44° C | 77% | 1016.6 hPa | 0 mm | - | 0 W/m² | - |
| 1787802726 | 24.44° C | 77% | 1016.4 hPa | 0 mm | - | 0 W/m² | - |
| 1787802420 | 23.89° C | 77% | 1016.4 hPa | 0 mm | - | 0 W/m² | - |
| 1787802114 | 23.89° C | 77% | 1016.4 hPa | 0 mm | - | 0 W/m² | - |
| 1787801810 | 23.89° C | 77% | 1016.5 hPa | 0 mm | - | 0 W/m² | - |
| 1787801505 | 24.44° C | 76% | 1016.4 hPa | 0 mm | - | 0 W/m² | - |
| 1787801204 | 24.44° C | 77% | 1016.3 hPa | 0 mm | - | 0 W/m² | - |
| 1787800903 | 23.89° C | 77% | 1016.4 hPa | 0 mm | - | 0 W/m² | - |
| 1787800598 | 23.89° C | 79% | 1016.7 hPa | 0 mm | - | 0 W/m² | - |
| 1787800298 | 23.89° C | 79% | 1016.4 hPa | 0 mm | - | 0 W/m² | - |
| 1787799994 | 23.89° C | 78% | 1016.5 hPa | 0 mm | - | 0 W/m² | - |
| 1787799692 | 23.89° C | 77% | 1016.5 hPa | 0 mm | - | 0 W/m² | - |
| 1787799390 | 23.89° C | 80% | 1016.5 hPa | 0 mm | - | 0 W/m² | - |
| 1787799089 | 23.89° C | 78% | 1016.7 hPa | 0 mm | - | 0 W/m² | - |
| 1787798788 | 23.89° C | 80% | 1016.5 hPa | 0 mm | - | 0 W/m² | - |
* Rain latest hour (hover to see other rain measurements)
** Current wind speed in m/s (hover to see current wind gust speed)